Caumont Avignon, France

2:15 AM CEST on April 21, 2018 (GMT +0200)
Caumont

Weather History for LFMV - August, 2014

Change the Weather History Date:

Friday, August 29, 2014

  Actual Average Record
Temperature  
Mean Temperature 76 °F -  
Max Temperature 89 °F - - ()
Min Temperature 64 °F - - ()
Cooling Degree Days 12    
Growing Degree Days 26 (Base 50)    
Moisture  
Dew Point 59 °F    
Average Humidity 58    
Maximum Humidity 83    
Minimum Humidity 33    
Precipitation  
Precipitation 0.00 in - - ()
Sea Level Pressure  
Sea Level Pressure 30.01 in    
Wind  
Wind Speed 3 mph ()    
Max Wind Speed 7 mph    
Max Gust Speed -    
Visibility 6.2 miles    
Events      
T = Trace of Precipitation, MM = Missing Value Source: Averaged Metar Reports

Daily Weather History Graph

Daily Weather History Graph

Search for Another Location

Airport or City:

Astronomy

Aug. 29, 2014 Rise Set
Actual Time 7:00 AM CEST 8:21 PM CEST
Civil Twilight 6:30 AM CEST 8:51 PM CEST
Nautical Twilight 5:54 AM CEST 9:27 PM CEST
Astronomical Twilight 5:15 AM CEST 10:05 PM CEST
Moon 10:43 AM CEST (8/29) 10:01 PM CEST (8/29)
Length of Visible Light 14h 21m
Length of Day
13h 21m
Waxing Crescent, 13% of the Moon is Illuminated
Aug 29
Waxing Crescent
Sep 2
First Quarter
Sep 9
Full
Sep 16
Last Quarter
Sep 24
New

Hourly Weather History & Observations

Time (CEST) Temp. Heat Index Dew Point Humidity Pressure Visibility Wind Dir Wind Speed Gust Speed Precip Events Conditions
12:00 AM 71.6 °F - 59.0 °F 64% 30.01 in 6.2 mi SE 3.5 mph - N/A   Unknown
12:30 AM 71.6 °F - 57.2 °F 60% 30.04 in 6.2 mi SE 4.6 mph - N/A   Unknown
1:30 AM 68.0 °F - 59.0 °F 73% 30.04 in 6.2 mi SSE 2.3 mph - N/A   Unknown
2:00 AM 68.0 °F - 59.0 °F 73% 30.01 in 6.2 mi East 1.2 mph - N/A   Unknown
2:30 AM 66.2 °F - 59.0 °F 78% 30.01 in 6.2 mi Calm Calm - N/A   Unknown
3:00 AM 66.2 °F - 59.0 °F 78% 30.01 in 6.2 mi Calm Calm - N/A   Unknown
3:30 AM 66.2 °F - 59.0 °F 78% 30.01 in 6.2 mi Variable 1.2 mph - N/A   Unknown
4:00 AM 66.2 °F - 59.0 °F 78% 30.01 in 6.2 mi ENE 2.3 mph - N/A   Unknown
4:30 AM 66.2 °F - 57.2 °F 73% 30.01 in 6.2 mi East 2.3 mph - N/A   Unknown
5:00 AM 66.2 °F - 59.0 °F 78% 30.01 in 6.2 mi Calm Calm - N/A   Unknown
5:30 AM 66.2 °F - 57.2 °F 73% 29.98 in 6.2 mi Variable 2.3 mph - N/A   Unknown
6:00 AM 64.4 °F - 57.2 °F 77% 29.98 in 6.2 mi Calm Calm - N/A   Unknown
6:30 AM 64.4 °F - 57.2 °F 77% 29.98 in 6.2 mi SE 1.2 mph - N/A   Unknown
7:00 AM 64.4 °F - 59.0 °F 83% 30.01 in 6.2 mi Calm Calm - N/A   Unknown
7:30 AM 64.4 °F - 59.0 °F 83% 30.01 in 6.2 mi Variable 2.3 mph - N/A   Unknown
8:00 AM 64.4 °F - 59.0 °F 83% 30.04 in 6.2 mi Calm Calm - N/A   Unknown
8:30 AM 66.2 °F - 59.0 °F 78% 30.01 in 6.2 mi East 2.3 mph - N/A   Unknown
9:00 AM 71.6 °F - 59.0 °F 64% 30.04 in 6.2 mi East 3.5 mph - N/A   Unknown
9:30 AM 75.2 °F - 57.2 °F 53% 30.04 in 6.2 mi Variable 1.2 mph - N/A   Unknown
10:00 AM 75.2 °F - 57.2 °F 53% 30.04 in 6.2 mi Calm Calm - N/A   Unknown
10:30 AM 75.2 °F - 59.0 °F 57% 30.06 in 6.2 mi Variable 3.5 mph - N/A   Unknown
11:00 AM 78.8 °F - 57.2 °F 47% 30.06 in 6.2 mi Variable 2.3 mph - N/A   Unknown
11:30 AM 78.8 °F - 59.0 °F 51% 30.06 in 6.2 mi Variable 3.5 mph - N/A   Unknown
12:00 PM 80.6 °F 80.8 °F 57.2 °F 45% 30.06 in 6.2 mi Variable 2.3 mph - N/A   Unknown
12:30 PM 82.4 °F 82.5 °F 59.0 °F 45% 30.06 in 6.2 mi Variable 3.5 mph - N/A   Unknown
1:00 PM 84.2 °F 83.8 °F 59.0 °F 42% 30.04 in 6.2 mi Variable 2.3 mph - N/A   Unknown
1:30 PM 84.2 °F 82.8 °F 53.6 °F 35% 30.04 in 6.2 mi NNW 6.9 mph - N/A   Unknown
2:00 PM 86.0 °F 84.2 °F 53.6 °F 33% 30.04 in 6.2 mi North 3.5 mph - N/A   Unknown
2:30 PM 84.2 °F 83.5 °F 57.2 °F 40% 30.01 in 6.2 mi Variable 3.5 mph - N/A   Unknown
3:00 PM 86.0 °F 84.5 °F 55.4 °F 35% 30.01 in 6.2 mi Variable 2.3 mph - N/A   Unknown
3:30 PM 86.0 °F 84.9 °F 57.2 °F 37% 30.01 in 6.2 mi SW 6.9 mph - N/A   Unknown
4:00 PM 87.8 °F 86.1 °F 55.4 °F 33% 30.01 in 6.2 mi SW 6.9 mph - N/A   Unknown
4:30 PM 87.8 °F 86.1 °F 55.4 °F 33% 29.98 in 6.2 mi West 4.6 mph - N/A   Unknown
5:00 PM 87.8 °F 86.5 °F 57.2 °F 35% 29.98 in 6.2 mi WSW 5.8 mph - N/A   Unknown
5:30 PM 87.8 °F 86.5 °F 57.2 °F 35% 29.98 in 6.2 mi Variable 3.5 mph - N/A   Unknown
6:00 PM 89.6 °F 88.1 °F 57.2 °F 33% 29.98 in 6.2 mi Variable 3.5 mph - N/A   Unknown
6:30 PM 87.8 °F 86.5 °F 57.2 °F 35% 29.98 in 6.2 mi WNW 5.8 mph - N/A   Unknown
7:00 PM 86.0 °F 86.1 °F 60.8 °F 43% 29.98 in 6.2 mi SW 6.9 mph - N/A   Unknown
7:30 PM 84.2 °F 84.4 °F 60.8 °F 45% 29.98 in 6.2 mi WSW 6.9 mph - N/A   Unknown
8:00 PM 82.4 °F 83.9 °F 64.4 °F 54% 29.98 in 6.2 mi WSW 6.9 mph - N/A   Unknown
8:30 PM 78.8 °F - 64.4 °F 61% 29.98 in 6.2 mi SSW 4.6 mph - N/A   Unknown
9:00 PM 77.0 °F - 64.4 °F 65% 29.98 in 6.2 mi Variable 3.5 mph - N/A   Unknown
9:30 PM 75.2 °F - 64.4 °F 69% 30.01 in 6.2 mi Variable 3.5 mph - N/A   Unknown
10:00 PM 75.2 °F - 64.4 °F 69% 30.01 in 6.2 mi WSW 5.8 mph - N/A   Unknown
10:30 PM 73.4 °F - 64.4 °F 73% 30.01 in 6.2 mi West 5.8 mph - N/A   Unknown
11:00 PM 73.4 °F - 62.6 °F 69% 30.01 in 6.2 mi Variable 2.3 mph - N/A   Unknown
11:30 PM 73.4 °F - 60.8 °F 65% 30.01 in 6.2 mi North 4.6 mph - N/A   Unknown